GIA7306 WIII-WMKK

Flight info

Callsign GIA7306
Flight time N/A
Altitude 38000
Route DOLTA2A DOLTA A585 PKU/N0485F370 N633 SALAX SALAX1G
Aircraft B77W/H-SDE1E2E3FGHIJ2J3J4J5M1RWXY/LB1D1

Departure

Time N/A
Airport Soekarno-Hatta International Airport (WIII)

Arrival

Time 2026-05-06 14:33
Airport Kuala Lumpur International Airport (WMKK)
Time Latitude Longitude Altitude Speed Heading
2026-05-06 12:56 -5.77071 106.54612 15647 ft 387 kts 314°
2026-05-06 12:56 -5.75491 106.53088 16329 ft 391 kts 314°
2026-05-06 12:57 -5.73516 106.51183 17156 ft 396 kts 314°
2026-05-06 12:57 -5.71517 106.49254 17964 ft 401 kts 314°
2026-05-06 12:57 -5.69485 106.47295 18750 ft 406 kts 314°
2026-05-06 12:57 -5.67441 106.45323 19504 ft 411 kts 314°
2026-05-06 12:58 -5.65374 106.43329 20229 ft 415 kts 314°
2026-05-06 12:58 -5.63270 106.41298 20937 ft 420 kts 313°
2026-05-06 12:58 -5.61346 106.39089 21584 ft 422 kts 304°
2026-05-06 12:58 -5.60011 106.36908 22133 ft 424 kts 295°
2026-05-06 12:59 -5.58899 106.34178 22653 ft 428 kts 287°
2026-05-06 12:59 -5.58373 106.32330 22867 ft 428 kts 284°
2026-05-06 12:59 -5.57654 106.29421 22839 ft 428 kts 283°
2026-05-06 12:59 -5.56952 106.26510 23004 ft 432 kts 283°
2026-05-06 13:00 -5.56246 106.23567 23582 ft 435 kts 283°
2026-05-06 13:00 -5.55536 106.20608 24177 ft 437 kts 283°
2026-05-06 13:00 -5.54556 106.17711 24700 ft 442 kts 295°
2026-05-06 13:00 -5.52808 106.15191 25194 ft 450 kts 311°
2026-05-06 13:01 -5.50336 106.13230 25734 ft 459 kts 327°
2026-05-06 13:01 -5.47400 106.11912 26279 ft 466 kts 337°
2026-05-06 13:01 -5.44342 106.10812 26774 ft 469 kts 336°
2026-05-06 13:01 -5.41327 106.09522 27235 ft 471 kts 332°
2026-05-06 13:02 -5.38377 106.08076 27689 ft 475 kts 330°
2026-05-06 13:02 -5.35456 106.06523 27845 ft 476 kts 328°
2026-05-06 13:02 -5.32605 106.04844 27821 ft 474 kts 326°
2026-05-06 13:02 -5.29807 106.03100 27817 ft 474 kts 325°
2026-05-06 13:03 -5.27013 106.01353 27835 ft 474 kts 326°
2026-05-06 13:03 -5.24185 105.99608 28197 ft 478 kts 326°
2026-05-06 13:03 -5.21332 105.97856 28661 ft 481 kts 326°
2026-05-06 13:03 -5.18472 105.96102 29122 ft 483 kts 326°
2026-05-06 13:04 -5.15596 105.94339 29544 ft 486 kts 326°
2026-05-06 13:04 -5.12690 105.92558 29926 ft 489 kts 326°
2026-05-06 13:04 -5.09756 105.90809 30285 ft 493 kts 327°
2026-05-06 13:04 -5.06769 105.89105 30725 ft 494 kts 328°
2026-05-06 13:05 -5.03771 105.87424 31248 ft 492 kts 328°
2026-05-06 13:05 -5.00790 105.85746 31775 ft 491 kts 328°
2026-05-06 13:05 -4.97848 105.84082 32268 ft 490 kts 328°
2026-05-06 13:05 -4.94882 105.82398 32750 ft 489 kts 328°
2026-05-06 13:06 -4.91927 105.80718 33221 ft 488 kts 328°
2026-05-06 13:06 -4.88976 105.79039 33687 ft 487 kts 328°
2026-05-06 13:06 -4.86028 105.77361 34142 ft 486 kts 328°
2026-05-06 13:06 -4.83092 105.75690 34590 ft 485 kts 328°
2026-05-06 13:07 -4.80156 105.74016 35023 ft 484 kts 328°
2026-05-06 13:07 -4.77239 105.72352 35437 ft 483 kts 328°
2026-05-06 13:07 -4.74315 105.70686 35839 ft 482 kts 328°
2026-05-06 13:07 -4.71404 105.69028 36223 ft 481 kts 328°
2026-05-06 13:08 -4.68483 105.67364 36574 ft 481 kts 328°
2026-05-06 13:08 -4.65612 105.65729 36886 ft 481 kts 328°
2026-05-06 13:08 -4.62695 105.64068 37205 ft 481 kts 328°
2026-05-06 13:08 -4.59791 105.62415 37507 ft 481 kts 328°
2026-05-06 13:09 -4.56873 105.60754 37788 ft 481 kts 328°
2026-05-06 13:09 -4.51060 105.57445 37816 ft 480 kts 328°
2026-05-06 13:10 -4.45247 105.54137 37817 ft 480 kts 328°
2026-05-06 13:10 -4.39440 105.50832 37817 ft 480 kts 328°
2026-05-06 13:11 -4.33631 105.47527 37817 ft 480 kts 328°
2026-05-06 13:11 -4.27863 105.44246 37817 ft 480 kts 328°
2026-05-06 13:12 -4.22057 105.40945 37817 ft 480 kts 328°
2026-05-06 13:12 -4.16250 105.37641 37817 ft 480 kts 328°
2026-05-06 13:13 -4.10440 105.34337 37817 ft 480 kts 328°
2026-05-06 13:13 -4.05606 105.31590 37817 ft 480 kts 328°
2026-05-06 13:14 -3.99798 105.28289 37817 ft 480 kts 328°
2026-05-06 13:14 -3.96531 105.26432 37817 ft 480 kts 328°
2026-05-06 13:15 -3.93481 105.24700 37817 ft 480 kts 328°
2026-05-06 13:15 -3.89511 105.22469 37815 ft 480 kts 328°
2026-05-06 13:16 -3.84470 105.19626 37817 ft 480 kts 328°
2026-05-06 13:16 -3.78850 105.16460 37817 ft 480 kts 328°
2026-05-06 13:17 -3.73032 105.13183 37817 ft 480 kts 328°
2026-05-06 13:17 -3.67198 105.09900 37817 ft 480 kts 328°
2026-05-06 13:18 -3.61416 105.06646 37817 ft 480 kts 328°
2026-05-06 13:18 -3.55588 105.03364 37817 ft 480 kts 328°
2026-05-06 13:19 -3.49762 105.00085 37817 ft 480 kts 328°
2026-05-06 13:19 -3.43933 104.96806 37817 ft 480 kts 328°
2026-05-06 13:20 -3.38100 104.93525 37817 ft 480 kts 328°
2026-05-06 13:20 -3.32271 104.90246 37817 ft 480 kts 328°
2026-05-06 13:21 -3.26440 104.86966 37817 ft 480 kts 328°
2026-05-06 13:21 -3.20647 104.83709 37817 ft 480 kts 328°
2026-05-06 13:22 -3.14820 104.80432 37817 ft 480 kts 328°
2026-05-06 13:22 -3.08971 104.77143 37817 ft 480 kts 328°
2026-05-06 13:23 -3.03144 104.73868 37817 ft 480 kts 328°
2026-05-06 13:23 -2.97322 104.70596 37817 ft 480 kts 328°
2026-05-06 13:24 -2.91511 104.67330 37817 ft 480 kts 328°
2026-05-06 13:24 -2.86029 104.63560 37817 ft 477 kts 317°
2026-05-06 13:25 -2.81161 104.59074 37817 ft 475 kts 313°
2026-05-06 13:25 -2.76498 104.54355 37817 ft 475 kts 313°
2026-05-06 13:26 -2.71848 104.49716 37817 ft 475 kts 313°
2026-05-06 13:26 -2.67119 104.45072 37817 ft 475 kts 313°
2026-05-06 13:27 -2.62386 104.40447 37817 ft 475 kts 313°
2026-05-06 13:27 -2.57676 104.35849 37817 ft 475 kts 314°
2026-05-06 13:28 -2.52938 104.31229 37817 ft 475 kts 314°
2026-05-06 13:28 -2.48201 104.26613 37817 ft 475 kts 314°
2026-05-06 13:29 -2.43460 104.21994 37817 ft 475 kts 314°
2026-05-06 13:29 -2.38718 104.17374 37817 ft 475 kts 314°
2026-05-06 13:30 -2.33999 104.12778 37817 ft 475 kts 314°
2026-05-06 13:30 -2.29264 104.08166 37817 ft 475 kts 314°
2026-05-06 13:31 -2.24525 104.03550 37817 ft 475 kts 314°
2026-05-06 13:31 -2.19788 103.98937 37817 ft 475 kts 314°
2026-05-06 13:32 -2.15044 103.94318 37817 ft 475 kts 314°
2026-05-06 13:32 -2.10313 103.89712 37817 ft 475 kts 314°
2026-05-06 13:33 -2.05596 103.85120 37817 ft 475 kts 314°
2026-05-06 13:33 -2.00859 103.80509 37817 ft 475 kts 314°
2026-05-06 13:34 -1.96115 103.75891 37817 ft 475 kts 314°
2026-05-06 13:34 -1.91372 103.71275 37817 ft 475 kts 314°
2026-05-06 13:35 -1.86628 103.66658 37817 ft 475 kts 314°
2026-05-06 13:35 -1.81916 103.62073 37817 ft 475 kts 314°
2026-05-06 13:36 -1.77178 103.57462 37817 ft 475 kts 314°
2026-05-06 13:36 -1.72442 103.52854 37817 ft 475 kts 314°
2026-05-06 13:37 -1.67704 103.48245 37817 ft 475 kts 314°
2026-05-06 13:37 -1.62961 103.43631 37817 ft 475 kts 314°
2026-05-06 13:38 -1.58214 103.39013 37817 ft 475 kts 314°
2026-05-06 13:38 -1.53477 103.34406 37817 ft 475 kts 314°
2026-05-06 13:39 -1.48733 103.29791 37817 ft 475 kts 314°
2026-05-06 13:39 -1.43991 103.25179 37817 ft 475 kts 314°
2026-05-06 13:40 -1.39261 103.20579 37817 ft 475 kts 314°
2026-05-06 13:40 -1.34518 103.15966 37817 ft 475 kts 314°
2026-05-06 13:41 -1.29807 103.11384 37817 ft 475 kts 314°
2026-05-06 13:41 -1.25069 103.06776 37817 ft 475 kts 314°
2026-05-06 13:42 -1.20323 103.02161 37817 ft 475 kts 314°
2026-05-06 13:42 -1.15584 102.97553 37817 ft 475 kts 314°
2026-05-06 13:43 -1.10847 102.92947 37817 ft 475 kts 314°
2026-05-06 13:43 -1.06097 102.88332 37817 ft 475 kts 314°
2026-05-06 13:44 -1.01352 102.83736 37817 ft 475 kts 314°
2026-05-06 13:44 -0.96627 102.79157 37817 ft 475 kts 314°
2026-05-06 13:45 -0.91880 102.74555 37817 ft 475 kts 314°
2026-05-06 13:45 -0.84755 102.67648 37817 ft 475 kts 314°
2026-05-06 13:46 -0.80008 102.63046 37817 ft 475 kts 314°
2026-05-06 13:46 -0.75263 102.58446 37817 ft 475 kts 314°
2026-05-06 13:47 -0.70513 102.53841 37817 ft 475 kts 314°
2026-05-06 13:47 -0.65763 102.49235 37817 ft 475 kts 314°
2026-05-06 13:48 -0.61011 102.44630 37817 ft 475 kts 314°
2026-05-06 13:48 -0.56292 102.40055 37817 ft 475 kts 314°
2026-05-06 13:49 -0.51543 102.35451 37817 ft 475 kts 314°
2026-05-06 13:49 -0.46788 102.30843 37817 ft 475 kts 314°
2026-05-06 13:50 -0.42037 102.26238 37817 ft 475 kts 314°
2026-05-06 13:50 -0.41024 102.25256 37817 ft 475 kts 314°
2026-05-06 13:51 -0.36250 102.20629 37845 ft 476 kts 314°
2026-05-06 13:51 -0.31497 102.16022 37846 ft 476 kts 314°
2026-05-06 13:52 -0.26747 102.11418 37846 ft 476 kts 314°
2026-05-06 13:52 -0.21990 102.06807 37846 ft 476 kts 314°
2026-05-06 13:53 -0.17236 102.02200 37846 ft 476 kts 314°
2026-05-06 13:53 -0.12503 101.97612 37846 ft 476 kts 314°
2026-05-06 13:54 -0.07767 101.93023 37846 ft 476 kts 314°
2026-05-06 13:54 -0.03017 101.88418 37846 ft 476 kts 314°
2026-05-06 13:55 0.01745 101.83803 37846 ft 476 kts 314°
2026-05-06 13:55 0.06310 101.79378 37846 ft 476 kts 314°
2026-05-06 13:56 0.10162 101.75646 37846 ft 476 kts 314°
2026-05-06 13:56 0.15719 101.70259 37846 ft 476 kts 314°
2026-05-06 13:57 0.20438 101.65685 37846 ft 476 kts 314°
2026-05-06 13:57 0.25192 101.61077 37846 ft 476 kts 314°
2026-05-06 13:58 0.29951 101.56464 37846 ft 476 kts 314°
2026-05-06 13:58 0.33894 101.52641 37846 ft 476 kts 314°
2026-05-06 13:59 0.39425 101.47279 37846 ft 476 kts 314°
2026-05-06 13:59 0.44010 101.44163 37846 ft 484 kts 336°
2026-05-06 14:00 0.47249 101.43343 37846 ft 491 kts 351°
2026-05-06 14:00 0.50677 101.43382 37848 ft 496 kts
2026-05-06 14:00 0.57484 101.44618 37845 ft 497 kts
2026-05-06 14:01 0.64324 101.45620 37846 ft 495 kts
2026-05-06 14:01 0.71208 101.46211 37533 ft 494 kts
2026-05-06 14:02 0.74626 101.46424 36786 ft 493 kts
2026-05-06 14:02 0.78014 101.46633 35991 ft 495 kts
2026-05-06 14:02 0.79368 101.46719 35718 ft 495 kts
2026-05-06 14:02 0.82667 101.46933 35059 ft 494 kts
2026-05-06 14:03 0.86093 101.47160 34374 ft 493 kts
2026-05-06 14:03 0.89513 101.47389 33679 ft 492 kts
2026-05-06 14:03 0.92929 101.47619 33049 ft 491 kts
2026-05-06 14:03 0.96324 101.47849 32478 ft 487 kts
2026-05-06 14:04 0.99711 101.48078 31921 ft 484 kts
2026-05-06 14:04 1.02028 101.48236 31548 ft 481 kts
2026-05-06 14:04 1.03501 101.48335 31316 ft 480 kts
2026-05-06 14:04 1.06829 101.48561 30790 ft 476 kts
2026-05-06 14:05 1.10126 101.48785 30272 ft 472 kts
2026-05-06 14:05 1.13385 101.49006 29751 ft 468 kts
2026-05-06 14:05 1.16635 101.49227 29210 ft 465 kts
2026-05-06 14:05 1.19817 101.49443 28660 ft 461 kts
2026-05-06 14:06 1.23044 101.49663 28096 ft 458 kts
2026-05-06 14:06 1.26175 101.49875 27546 ft 455 kts
2026-05-06 14:06 1.29317 101.50089 26992 ft 451 kts
2026-05-06 14:06 1.32367 101.50296 26469 ft 448 kts
2026-05-06 14:07 1.35170 101.50486 25983 ft 444 kts
2026-05-06 14:07 1.38250 101.50696 25452 ft 441 kts
2026-05-06 14:07 1.41298 101.50903 24924 ft 437 kts
2026-05-06 14:07 1.44323 101.51108 24396 ft 434 kts
2026-05-06 14:08 1.47332 101.51313 23873 ft 431 kts
2026-05-06 14:08 1.50315 101.51527 23369 ft 428 kts
2026-05-06 14:08 1.53273 101.51766 22955 ft 426 kts
2026-05-06 14:08 1.56227 101.52005 22915 ft 428 kts
2026-05-06 14:09 1.59235 101.52244 22877 ft 438 kts
2026-05-06 14:09 1.62187 101.52480 22662 ft 424 kts
2026-05-06 14:09 1.65091 101.52719 22359 ft 410 kts
2026-05-06 14:09 1.67896 101.52954 22058 ft 397 kts
2026-05-06 14:10 1.70609 101.53188 21756 ft 386 kts
2026-05-06 14:10 1.73252 101.53419 21455 ft 378 kts
2026-05-06 14:10 1.75821 101.53816 21087 ft 382 kts 12°
2026-05-06 14:10 1.78275 101.54893 20638 ft 390 kts 27°
2026-05-06 14:11 1.80454 101.56527 20188 ft 392 kts 39°
2026-05-06 14:11 1.82340 101.58501 19746 ft 393 kts 45°
2026-05-06 14:11 1.84185 101.60529 19295 ft 394 kts 45°
2026-05-06 14:11 1.86006 101.62580 18844 ft 393 kts 46°
2026-05-06 14:12 1.87808 101.64635 18392 ft 391 kts 46°
2026-05-06 14:12 1.89595 101.66673 17942 ft 389 kts 46°
2026-05-06 14:12 1.91380 101.68709 17491 ft 387 kts 46°
2026-05-06 14:12 1.93151 101.70726 17040 ft 385 kts 46°
2026-05-06 14:13 1.94893 101.72711 16483 ft 383 kts 46°
2026-05-06 14:13 1.96642 101.74704 15863 ft 381 kts 46°
2026-05-06 14:13 1.98390 101.76696 15236 ft 379 kts 46°
2026-05-06 14:13 2.00011 101.78542 14650 ft 377 kts 46°
2026-05-06 14:14 2.01509 101.80250 14106 ft 375 kts 46°
2026-05-06 14:14 2.02678 101.81581 13681 ft 373 kts 46°
2026-05-06 14:14 2.04380 101.83522 13058 ft 371 kts 46°
2026-05-06 14:14 2.06078 101.85456 12432 ft 369 kts 46°
2026-05-06 14:15 2.07641 101.87491 11793 ft 369 kts 57°
2026-05-06 14:15 2.08523 101.89875 11166 ft 369 kts 78°
2026-05-06 14:15 2.08625 101.92429 10552 ft 366 kts 92°
2026-05-06 14:15 2.08524 101.94966 9987 ft 363 kts 91°
2026-05-06 14:16 2.08363 101.97458 9668 ft 354 kts 97°
2026-05-06 14:16 2.08055 101.99699 9680 ft 338 kts 97°
2026-05-06 14:16 2.07880 102.01933 9675 ft 325 kts 93°
2026-05-06 14:16 2.07804 102.03956 9668 ft 313 kts 91°
2026-05-06 14:17 2.07754 102.06093 9662 ft 302 kts 91°
2026-05-06 14:17 2.07874 102.08150 9659 ft 293 kts 83°
2026-05-06 14:17 2.08211 102.10154 9658 ft 290 kts 77°
2026-05-06 14:17 2.08736 102.12113 9661 ft 289 kts 72°
2026-05-06 14:18 2.09365 102.13997 9662 ft 291 kts 69°
2026-05-06 14:18 2.10027 102.15920 9662 ft 292 kts 70°
2026-05-06 14:18 2.10844 102.17767 9636 ft 289 kts 54°
2026-05-06 14:18 2.12278 102.19107 9624 ft 281 kts 27°
2026-05-06 14:19 2.14107 102.19670 9624 ft 272 kts
2026-05-06 14:19 2.15922 102.19380 9633 ft 264 kts 337°
2026-05-06 14:19 2.17526 102.18531 9640 ft 259 kts 323°
2026-05-06 14:19 2.19013 102.17510 9630 ft 260 kts 322°
2026-05-06 14:20 2.20498 102.16470 9626 ft 259 kts 321°
2026-05-06 14:20 2.21971 102.15427 9625 ft 259 kts 321°
2026-05-06 14:20 2.23445 102.14386 9624 ft 258 kts 321°
2026-05-06 14:20 2.24895 102.13365 9618 ft 251 kts 321°
2026-05-06 14:21 2.26287 102.12385 9550 ft 239 kts 321°
2026-05-06 14:21 2.27621 102.11447 9415 ft 229 kts 321°
2026-05-06 14:21 2.28904 102.10545 9094 ft 229 kts 321°
2026-05-06 14:21 2.30217 102.09623 8674 ft 232 kts 321°
2026-05-06 14:22 2.31541 102.08692 8313 ft 232 kts 321°
2026-05-06 14:22 2.32860 102.07767 7970 ft 232 kts 321°
2026-05-06 14:22 2.34173 102.06845 7654 ft 228 kts 321°
2026-05-06 14:22 2.35468 102.05936 7288 ft 227 kts 321°
2026-05-06 14:23 2.36742 102.05012 6923 ft 225 kts 317°
2026-05-06 14:23 2.37862 102.03917 6498 ft 224 kts 309°
2026-05-06 14:23 2.38866 102.02716 6053 ft 226 kts 306°
2026-05-06 14:23 2.39807 102.01470 5609 ft 228 kts 306°
2026-05-06 14:24 2.40747 102.00174 5158 ft 231 kts 306°
2026-05-06 14:24 2.41694 101.98874 4720 ft 233 kts 307°
2026-05-06 14:24 2.42631 101.97600 4628 ft 220 kts 308°
2026-05-06 14:24 2.43542 101.96367 4621 ft 221 kts 308°
2026-05-06 14:25 2.44461 101.95126 4625 ft 224 kts 308°
2026-05-06 14:25 2.45382 101.93884 4626 ft 225 kts 308°
2026-05-06 14:25 2.46323 101.92617 4625 ft 222 kts 308°
2026-05-06 14:25 2.47232 101.91392 4621 ft 216 kts 308°
2026-05-06 14:26 2.48150 101.90252 4619 ft 210 kts 315°
2026-05-06 14:26 2.49255 101.89318 4621 ft 206 kts 323°
2026-05-06 14:26 2.50430 101.88501 4620 ft 205 kts 327°
2026-05-06 14:26 2.51624 101.87723 4621 ft 205 kts 327°
2026-05-06 14:27 2.52824 101.86936 4622 ft 207 kts 327°
2026-05-06 14:27 2.54030 101.86138 4596 ft 208 kts 327°
2026-05-06 14:27 2.55234 101.85337 4534 ft 208 kts 327°
2026-05-06 14:27 2.56431 101.84537 4339 ft 210 kts 327°
2026-05-06 14:28 2.57642 101.83727 4078 ft 208 kts 327°
2026-05-06 14:28 2.58855 101.82915 3832 ft 212 kts 327°
2026-05-06 14:28 2.60104 101.82078 3518 ft 221 kts 327°
2026-05-06 14:28 2.61385 101.81219 3215 ft 222 kts 327°
2026-05-06 14:29 2.62679 101.80353 2914 ft 221 kts 327°
2026-05-06 14:29 2.63941 101.79507 2644 ft 213 kts 327°
2026-05-06 14:29 2.65121 101.78716 2381 ft 200 kts 327°
2026-05-06 14:29 2.66246 101.77962 2097 ft 188 kts 327°
2026-05-06 14:30 2.67303 101.77254 1842 ft 174 kts 327°
2026-05-06 14:30 2.68260 101.76612 1620 ft 161 kts 327°
2026-05-06 14:30 2.69171 101.76001 1410 ft 155 kts 327°
2026-05-06 14:30 2.70057 101.75408 1203 ft 150 kts 327°
2026-05-06 14:31 2.70907 101.74838 1012 ft 148 kts 327°
2026-05-06 14:31 2.71775 101.74256 817 ft 148 kts 327°
2026-05-06 14:31 2.72628 101.73684 622 ft 148 kts 327°
2026-05-06 14:31 2.73481 101.73112 427 ft 147 kts 326°
2026-05-06 14:32 2.74320 101.72551 244 ft 147 kts 327°
2026-05-06 14:32 2.75167 101.71981 89 ft 145 kts 327°
2026-05-06 14:32 2.75873 101.71512 84 ft 84 kts 326°
2026-05-06 14:32 2.76236 101.71267 84 ft 54 kts 326°
2026-05-06 14:33 2.76479 101.71094 84 ft 24 kts 316°
2026-05-06 14:33 2.76555 101.70979 84 ft 17 kts 298°
2026-05-06 14:33 2.76582 101.70920 84 ft 8 kts 288°
2026-05-06 14:33 2.76583 101.70875 84 ft 4 kts 251°
2026-05-06 14:34 2.76557 101.70850 84 ft 6 kts 198°
2026-05-06 14:34 2.76506 101.70860 84 ft 10 kts 158°
2026-05-06 14:34 2.76469 101.70884 84 ft 5 kts 144°
2026-05-06 14:34 2.76428 101.70913 84 ft 9 kts 144°
2026-05-06 14:35 2.76367 101.70954 84 ft 10 kts 147°
2026-05-06 14:35 2.76316 101.70987 84 ft 7 kts 147°
2026-05-06 14:35 2.76285 101.71007 84 ft 3 kts 147°
2026-05-06 14:35 2.76268 101.71018 84 ft 4 kts 147°
2026-05-06 14:36 2.76210 101.71056 84 ft 16 kts 147°
2026-05-06 14:36 2.76118 101.71116 84 ft 17 kts 146°
2026-05-06 14:36 2.76009 101.71191 84 ft 13 kts 145°
2026-05-06 14:36 2.75945 101.71235 84 ft 15 kts 145°
2026-05-06 14:37 2.75834 101.71311 84 ft 23 kts 146°
2026-05-06 14:37 2.75736 101.71375 84 ft 16 kts 147°
2026-05-06 14:37 2.75647 101.71433 84 ft 14 kts 146°
2026-05-06 14:37 2.75544 101.71503 84 ft 20 kts 146°
2026-05-06 14:38 2.75445 101.71570 84 ft 16 kts 147°
2026-05-06 14:38 2.75350 101.71633 84 ft 14 kts 146°
2026-05-06 14:38 2.75280 101.71680 84 ft 7 kts 146°
2026-05-06 14:38 2.75238 101.71702 84 ft 8 kts 177°
2026-05-06 14:39 2.75183 101.71664 84 ft 12 kts 238°
2026-05-06 14:39 2.75153 101.71616 84 ft 4 kts 238°
2026-05-06 14:39 2.75148 101.71609 84 ft 0 kts 238°
2026-05-06 14:40 2.75135 101.71588 84 ft 8 kts 238°
2026-05-06 14:40 2.75092 101.71518 84 ft 12 kts 238°
2026-05-06 14:40 2.75052 101.71455 84 ft 11 kts 238°
2026-05-06 14:41 2.75021 101.71413 84 ft 9 kts 216°
2026-05-06 14:41 2.74975 101.71405 84 ft 7 kts 164°
2026-05-06 14:41 2.74953 101.71417 84 ft 4 kts 148°
2026-05-06 14:41 2.74947 101.71421 84 ft 0 kts 146°
2026-05-06 14:42 2.74938 101.71427 84 ft 0 kts 146°